Terminal Aerodrome Forecast
Issued by NWS Jackson, MS

Home | Current Version | Previous Version | Text Only | Print | Product List | Glossary On
Versions: 1 2 3 4 5 6 7 8 9 10 11 12 13 14 15 16 17
437
FTUS44 KJAN 240556 RRA
TAFHBG
TAF
KHBG 240556Z 2406/2506 23003KT P6SM SCT025 BKN090
     FM240800 25003KT 6SM BR VCSH BKN019 BKN090
     FM241000 23003KT 6SM BR VCTS BKN025CB BKN090
     FM241500 26005KT P6SM SHRA VCTS BKN025CB BKN090
     FM250100 25004KT P6SM VCTS BKN090CB=

USA.gov is the U.S. government's official web portal to all federal, state and local government web resources and services.